This demonstration page uses our WeatherBlox Daily Observations layout. Learn more.

Left ArrowRight Arrow

Hourly Observations for May 24, 2017

Temp ( °F °C ) Dew Point ( °F °C ) Humidity (%) Winds ( mph kmh ) Pressure ( in mb ) Visibility ( mi km ) Precip ( " mm )
12:15 am 00:15 Partly Cloudy 44 6.6 39 3.9 83 83 NW 7 11 29.97 1015 10 16 N/A
12:35 am 00:35 Partly Cloudy 43 6.2 39 4 86 86 NW 7 11 29.97 1015 10 16 N/A
12:55 am 00:55 Mostly Cloudy 45 7.3 40 4.4 82 82 NW 7 11 29.97 1015 10 16 N/A
1:15 am 01:15 Partly Cloudy 46 7.8 39 4 77 77 NW 8 13 29.97 1015 10 16 N/A
1:35 am 01:35 Clear 45 7.4 38 3.6 77 77 NNW 9 15 29.97 1015 10 16 N/A
1:55 am 01:55 Clear 45 7 38 3.5 79 79 NW 7 11 29.94 1014 10 16 N/A
2:15 am 02:15 Clear 44 6.5 39 3.8 83 83 NW 6 9 29.94 1014 10 16 N/A
2:35 am 02:35 Partly Cloudy 42 5.5 39 3.7 88 88 NW 7 11 29.94 1014 10 16 N/A
2:55 am 02:55 Partly Cloudy 43 6 39 3.8 86 86 WNW 8 13 29.94 1014 10 16 N/A
3:15 am 03:15 Cloudy 44 6.6 39 4 84 84 WNW 8 13 29.94 1014 10 16 N/A
3:35 am 03:35 Cloudy 45 7.1 40 4.6 84 84 WNW 7 11 29.94 1014 10 16 N/A
3:55 am 03:55 Cloudy 46 7.5 41 5 84 84 WNW 9 15 29.91 1013 10 16 N/A
4:15 am 04:15 Cloudy 46 7.5 41 5 84 84 NW 5 7 29.91 1013 10 16 N/A
4:30 am 04:30 Mostly Cloudy 45 7.3 41 4.9 85 85 NW 9 15 29.91 1013 10 16 N/A
4:55 am 04:55 Mostly Cloudy 45 7.2 40 4.7 84 84 NW 7 11 29.91 1013 10 16 N/A
5:15 am 05:15 Mostly Cloudy 45 7.1 40 4.5 84 84 NNW 7 11 29.91 1013 10 16 N/A
5:35 am 05:35 Partly Cloudy 43 6.3 40 4.2 87 87 NNW 7 11 29.91 1013 10 16 N/A
5:55 am 05:55 Clear 42 5.7 39 3.9 88 88 NNW 7 11 29.88 1012 10 16 N/A
6:10 am 06:10 Clear 42 5.6 38 3.6 87 87 NW 7 11 29.88 1012 10 16 N/A
6:35 am 06:35 Sunny 40 4.7 38 3.3 91 91 NW 6 9 29.88 1012 10 16 N/A
6:55 am 06:55 Sunny 41 5.1 38 3.6 90 90 WNW 6 9 29.88 1012 10 16 N/A
7:15 am 07:15 Sunny 42 5.7 39 4 89 89 NW 7 11 29.88 1012 10 16 N/A
7:35 am 07:35 Sunny 44 6.5 40 4.4 87 87 NW 8 13 29.88 1012 10 16 N/A
7:55 am 07:55 Sunny 45 7 40 4.4 84 84 NW 7 11 29.88 1012 10 16 N/A
8:15 am 08:15 Sunny 46 7.9 41 4.9 82 82 NNW 7 11 29.85 1011 10 16 N/A
8:35 am 08:35 Sunny 47 8.5 41 5.2 80 80 NNW 7 11 29.85 1011 10 16 N/A
8:55 am 08:55 Sunny 48 9.1 42 5.4 78 78 NNW 6 9 29.85 1011 10 16 N/A
9:15 am 09:15 Sunny 49 9.7 42 5.6 76 76 NNW 5 7 29.85 1011 10 16 N/A
9:35 am 09:35 Sunny 51 10.3 41 5.2 71 71 NW 3 6 29.85 1011 10 16 N/A
9:55 am 09:55 Partly Cloudy 51 10.6 40 4.7 67 67 N 6 9 29.83 1010 10 16 N/A
10:15 am 10:15 Mostly Cloudy 53 11.5 40 4.6 63 63 N N/A 29.80 1009 10 16 N/A
10:35 am 10:35 Mostly Cloudy 53 11.6 41 4.8 63 63 WNW 6 9 29.80 1009 10 16 N/A
10:55 am 10:55 Cloudy 52 11.2 39 3.8 61 61 NW 5 7 29.80 1009 10 16 N/A
11:15 am 11:15 Partly Cloudy 53 11.4 39 4.1 61 61 N N/A 29.77 1008 10 16 N/A
11:35 am 11:35 Partly Cloudy 54 12.3 39 4.1 58 58 NNE 3 6 29.77 1008 10 16 N/A
11:55 am 11:55 Mostly Cloudy 54 12.2 39 4.1 58 58 NW 5 7 29.77 1008 10 16 N/A
12:15 pm 12:15 Partly Cloudy 56 13.3 41 5.2 58 58 NW 3 6 29.77 1008 10 16 N/A
12:35 pm 12:35 Partly Cloudy 56 13.6 41 5.2 57 57 NNW 3 6 29.77 1008 10 16 N/A
12:55 pm 12:55 Sunny 56 13.5 41 4.8 56 56 NE 3 6 29.77 1008 10 16 N/A
1:15 pm 13:15 Sunny 58 14.5 42 5.4 55 55 SSW 3 6 29.74 1007 10 16 N/A
1:35 pm 13:35 Sunny 60 15.3 43 5.9 54 54 S 5 7 29.74 1007 10 16 N/A
1:55 pm 13:55 Sunny 59 14.9 40 4.3 49 49 N N/A 29.74 1007 10 16 N/A
2:15 pm 14:15 Sunny 60 15.5 40 4.5 48 48 SW 5 7 29.71 1006 10 16 N/A
2:35 pm 14:35 Sunny 61 16.3 41 5.2 48 48 E 6 9 29.71 1006 10 16 N/A
2:55 pm 14:55 Sunny 61 16.3 39 3.8 44 44 S 3 6 29.68 1005 10 16 N/A
3:15 pm 15:15 Sunny 62 16.8 40 4.5 44 44 W 5 7 29.65 1004 10 16 N/A
3:35 pm 15:35 Sunny 63 17.4 41 4.8 44 44 WSW 6 9 29.65 1004 10 16 N/A
3:55 pm 15:55 Sunny 64 17.5 40 4.6 43 43 SW 7 11 29.65 1004 10 16 N/A
4:15 pm 16:15 Sunny 64 17.9 40 4.3 41 41 SW 7 11 29.65 1004 10 16 N/A
4:35 pm 16:35 Sunny 65 18.1 38 3.6 38 38 S 6 9 29.62 1003 10 16 N/A
4:55 pm 16:55 Sunny 65 18.3 38 3.5 38 38 SSW 6 9 29.62 1003 10 16 N/A
5:15 pm 17:15 Sunny 65 18.6 38 3.2 36 36 SSW 7 11 29.62 1003 10 16 N/A
5:35 pm 17:35 Sunny 65 18.4 38 3.6 38 38 S 10 17 29.62 1003 10 16 N/A
5:55 pm 17:55 Sunny 65 18.6 40 4.3 39 39 SSE 8 13 29.62 1003 10 16 N/A
6:15 pm 18:15 Sunny 65 18.2 39 4.1 39 39 SSE 8 13 29.59 1002 10 16 N/A
6:35 pm 18:35 Sunny 65 18.5 39 3.8 38 38 S 7 11 29.59 1002 10 16 N/A
6:55 pm 18:55 Sunny 65 18.5 40 4.4 40 40 SSE 13 20 29.59 1002 10 16 N/A
7:15 pm 19:15 Sunny 65 18.3 40 4.4 40 40 S 9 15 29.59 1002 10 16 N/A
7:35 pm 19:35 Sunny 64 18 41 5 43 43 SE 13 20 29.59 1002 10 16 N/A
7:55 pm 19:55 Sunny 64 17.5 41 5 44 44 SSE 13 20 29.56 1001 10 16 N/A
8:15 pm 20:15 Sunny 63 17 41 5 45 45 SSE 13 20 29.56 1001 10 16 N/A
8:35 pm 20:35 Sunny 61 16.2 42 5.5 49 49 SSE 12 19 29.56 1001 10 16 N/A
8:55 pm 20:55 Sunny 59 15.1 42 5.7 54 54 SSE 10 17 29.59 1002 10 16 N/A
9:15 pm 21:15 Clear 58 14.5 43 5.9 57 57 SSE 10 17 29.59 1002 10 16 N/A
9:35 pm 21:35 Clear 56 13.5 43 6.3 62 62 SE 10 17 29.59 1002 10 16 N/A
9:55 pm 21:55 Clear 56 13.4 43 6.2 62 62 SSE 10 17 29.59 1002 10 16 N/A
10:15 pm 22:15 Clear 56 13.2 42 5.7 61 61 SE 14 22 29.59 1002 10 16 N/A
10:35 pm 22:35 Clear 55 13 42 5.8 62 62 SE 14 22 29.59 1002 10 16 N/A
10:55 pm 22:55 Clear 55 12.6 43 6 64 64 SSE 15 24 29.59 1002 10 16 N/A
11:15 pm 23:15 Clear 54 12.3 43 6.2 67 67 SSE 16 26 29.62 1003 10 16 N/A
11:35 pm 23:35 Clear 54 12.1 43 6.3 68 68 SSE 15 24 29.62 1003 10 16 N/A
11:55 pm 23:55 Clear 54 12 44 6.4 69 69 SSE 15 24 29.62 1003 10 16 N/A

Powered by AerisWeather